GFSWCAN_sfc_thetae_273.txt.gz
Theta_e
305 304 303 303 302 301 300 300 300 301 302 302 302 303 305 305 306 297 295 300 305 301 304 308 308 304 304 302 298 301 302 304 299 295 294 294 293 295 294 296 297 296 293 292 292 288 290 308 307 298 300 303 306 305
304 303 303 302 302 301 300 299 299 301 302 302 302 303 305 305 305 302 296 302 303 300 299 306 304 306 311 309 303 303 301 303 307 297 296 295 295 293 292 289 298 295 298 296 296 296 302 305 303 305 306 307 306 305
303 303 303 303 302 301 300 300 299 301 302 302 302 302 304 304 305 302 292 295 299 295 293 293 296 301 311 310 308 300 304 307 306 307 302 300 297 296 292 293 294 298 303 298 297 299 303 305 309 309 310 307 309 309
304 304 303 303 303 302 300 300 300 301 302 302 301 302 304 304 304 303 291 295 299 297 291 293 305 303 310 311 310 310 308 306 305 301 297 296 295 297 294 296 294 298 298 300 298 301 305 308 310 310 311 312 310 310
304 304 304 303 303 302 302 301 301 302 302 302 301 302 303 303 304 297 293 294 299 298 293 296 300 302 305 306 306 306 304 300 298 298 295 294 295 294 293 294 292 299 298 296 296 300 302 303 306 309 305 305 307 306
303 304 304 304 303 303 302 302 302 302 302 301 301 302 302 303 303 296 291 299 298 298 293 290 297 298 300 301 301 303 303 301 297 295 294 295 296 295 291 289 295 298 302 301 299 303 302 304 306 307 305 306 308 307
303 304 304 304 304 303 303 303 303 303 303 302 302 302 303 303 292 294 290 296 301 297 293 288 288 296 300 297 297 297 300 299 297 294 293 293 294 295 290 289 296 301 301 302 302 304 300 302 303 307 308 308 309 307
302 304 304 304 304 304 303 303 303 303 302 302 302 302 303 304 297 290 296 303 299 297 296 288 289 293 297 293 292 294 294 295 295 295 294 294 294 292 288 294 297 300 302 304 304 302 302 304 304 305 305 305 304 304
301 301 303 303 304 305 304 303 303 302 302 302 302 303 296 291 290 295 308 305 299 297 290 290 288 287 296 293 294 294 294 291 293 291 291 293 290 290 293 295 298 300 301 302 303 303 303 303 303 303 303 304 304 304
302 302 303 304 304 304 304 303 302 303 302 302 297 295 290 295 305 303 293 290 289 290 292 290 292 290 294 292 292 292 293 290 289 292 293 289 288 293 296 299 299 302 302 303 300 299 300 300 301 303 304 305 306 306
302 302 303 304 303 303 303 303 303 303 301 295 293 293 297 306 297 294 287 285 285 285 286 289 290 290 294 292 291 294 292 292 289 292 291 288 288 293 297 298 300 302 305 303 303 302 301 302 303 304 305 307 307 307
302 302 303 303 303 303 303 303 303 297 295 295 295 297 298 296 293 288 282 286 285 284 287 286 287 290 291 294 292 291 291 290 287 293 291 286 293 297 299 299 302 302 303 301 302 303 304 305 306 305 305 306 306 306
302 302 302 303 303 303 302 302 302 303 301 299 296 293 290 289 282 281 281 283 283 286 288 289 289 292 291 291 289 288 288 286 290 285 284 289 297 301 302 302 301 301 301 302 303 304 306 307 307 305 305 306 307 307
301 301 301 302 303 303 302 302 302 300 296 289 287 279 282 280 284 284 285 286 289 292 291 290 290 291 291 289 288 286 288 288 284 281 284 288 295 299 301 302 301 299 301 303 303 303 304 304 304 306 307 307 307 306
301 301 301 301 303 302 303 302 302 298 293 287 287 279 283 287 288 289 290 290 293 294 293 291 292 291 290 290 288 287 285 283 284 283 287 295 298 299 299 298 298 298 300 301 301 302 302 302 302 303 306 305 306 307
300 300 299 302 302 302 301 299 297 296 292 289 286 284 287 286 287 287 288 288 293 293 295 294 291 289 289 290 288 285 284 283 289 292 295 296 296 296 296 297 297 298 299 299 300 298 299 302 302 301 305 305 305 305
299 294 301 301 301 301 301 294 293 292 289 285 285 288 287 286 286 288 290 290 294 293 290 290 288 288 292 288 288 290 287 290 292 294 295 297 298 300 301 302 303 301 298 299 300 298 296 298 298 301 302 302 304 303
295 298 301 300 299 298 296 294 291 288 284 286 284 286 287 288 288 289 291 292 293 293 292 290 293 289 287 287 286 291 293 295 294 294 297 297 300 304 304 302 303 303 301 300 301 298 295 294 292 293 296 300 301 299
298 299 300 301 298 293 290 291 292 284 286 287 286 285 285 286 289 291 291 293 294 296 294 291 287 286 288 293 291 291 291 292 292 292 294 299 300 302 304 305 306 304 302 301 297 295 293 292 295 294 299 300 298 297
300 300 301 300 299 292 290 290 292 285 284 286 286 285 285 286 287 288 288 290 291 290 288 288 288 290 291 293 295 294 293 294 292 290 290 296 301 302 300 300 299 300 295 293 294 292 292 296 299 300 300 298 297 297
297 298 299 296 295 293 290 287 286 286 285 283 285 285 284 285 284 285 285 287 286 284 284 288 289 292 294 294 294 293 292 292 292 292 290 289 295 298 297 297 299 299 298 297 292 293 294 295 299 300 298 297 296 297
293 299 293 294 290 292 288 289 286 286 283 283 283 283 282 282 283 284 286 284 283 285 286 286 288 289 291 289 291 291 293 292 291 291 292 291 290 293 297 297 297 297 298 297 296 293 292 298 300 300 298 297 298 301
297 295 292 293 286 281 281 287 283 283 281 282 283 282 283 283 284 287 283 284 286 288 288 287 288 288 289 290 290 290 291 290 290 290 292 293 292 292 292 293 293 294 295 293 292 292 291 294 297 298 297 298 297 295
298 290 286 285 283 279 287 283 283 282 283 282 281 281 282 283 286 283 282 283 287 290 289 290 290 289 289 289 289 290 291 292 291 291 292 292 291 292 294 294 295 295 295 295 292 293 295 297 296 297 297 296 296 295
280 280 280 272 284 283 282 283 283 282 282 283 283 283 285 286 283 283 282 289 291 287 288 289 288 288 286 287 288 289 291 291 290 291 293 293 291 291 291 292 294 294 295 293 292 294 296 297 300 297 297 297 296 296
276 284 281 285 284 283 283 283 285 284 284 283 284 286 285 283 282 282 287 293 292 292 291 289 288 289 288 288 288 289 290 291 290 289 291 292 294 293 293 292 291 292 294 295 293 295 297 298 298 297 297 296 290 297
276 282 284 288 287 287 285 286 286 284 283 283 282 284 282 281 282 288 293 293 292 292 292 293 291 290 289 290 292 293 294 295 294 294 294 292 293 294 294 293 293 295 296 295 294 297 298 299 299 299 299 298 298 299
284 284 282 284 285 286 285 284 284 285 287 289 286 281 281 282 283 291 291 294 294 294 292 294 294 293 293 293 294 294 294 295 296 297 297 296 295 295 295 296 297 293 297 298 297 296 297 299 300 300 300 299 300 302
284 286 287 286 287 286 286 285 286 290 292 287 285 285 286 289 292 292 294 294 293 292 289 289 290 292 292 293 294 294 295 295 293 291 291 291 292 293 295 296 296 297 298 297 290 290 297 299 300 301 301 301 303 305
286 289 286 286 286 284 289 293 291 294 294 293 292 291 291 292 295 296 294 292 289 287 287 288 289 290 291 291 292 295 297 298 298 296 293 293 294 296 295 296 297 297 297 297 297 297 286 295 293 300 301 302 303 304
291 290 288 287 286 291 294 296 296 296 295 293 293 290 288 290 293 295 294 292 290 288 288 289 291 293 294 295 296 297 297 301 303 302 300 299 300 297 296 298 297 297 298 299 298 298 298 299 301 301 301 302 303 302
289 288 288 287 288 291 293 292 291 291 291 290 289 290 289 288 285 289 293 291 289 288 288 290 290 291 295 297 300 302 293 301 303 303 301 300 299 300 299 300 300 299 300 299 300 301 301 301 301 301 302 303 304 304
290 290 290 289 288 289 289 290 290 290 290 288 288 289 288 286 284 288 293 293 291 290 290 291 293 294 298 300 299 300 297 303 300 292 289 289 290 295 297 297 299 301 301 300 300 301 301 302 303 303 304 304 304 305

GFSWCAN_sfc_thetae_276.txt.gz
Theta_e
307 307 306 305 304 302 301 301 300 300 301 301 302 303 305 305 305 296 293 297 303 300 302 306 305 302 302 300 296 299 301 302 297 294 293 294 292 294 292 295 295 294 292 291 290 288 290 306 306 298 301 301 306 306
307 306 305 304 303 302 301 300 299 300 300 301 302 302 304 305 305 299 294 299 301 299 298 302 304 304 304 307 302 301 300 302 303 296 294 293 292 291 290 288 296 292 296 294 295 295 301 304 301 304 304 306 307 307
306 305 304 303 302 302 301 300 299 299 300 302 302 301 303 304 304 301 291 293 297 294 293 292 294 299 306 309 306 297 302 307 304 304 299 297 295 294 291 292 293 296 302 298 298 299 303 306 306 309 309 308 310 310
305 304 304 303 303 302 301 300 299 299 301 302 301 301 303 303 303 302 289 292 297 295 289 290 302 300 308 309 308 307 306 304 304 299 297 296 295 296 292 294 294 297 300 298 297 301 304 308 310 311 312 312 311 311
305 304 304 303 303 302 302 300 300 300 302 302 301 301 302 303 303 296 291 292 297 296 290 294 298 301 303 306 306 304 302 298 296 297 294 295 294 293 292 292 290 297 296 296 295 303 303 303 309 312 307 306 307 307
304 304 304 303 303 303 302 302 301 301 302 302 301 301 302 302 302 294 291 296 296 297 292 289 295 298 300 302 304 302 301 297 295 293 293 294 295 294 291 288 294 296 300 299 299 301 303 305 307 308 306 307 308 308
303 304 304 303 303 303 303 302 302 303 303 302 301 302 302 303 290 292 289 293 299 295 291 287 287 294 297 296 295 296 298 297 295 292 292 292 292 293 288 287 295 298 301 300 301 303 300 302 303 306 308 308 308 307
303 303 303 304 304 304 303 303 303 303 303 302 302 302 303 303 295 289 295 302 298 295 294 286 287 292 295 292 291 292 294 294 294 293 293 292 292 290 287 291 295 297 300 300 302 302 301 304 304 304 305 305 305 305
302 303 303 304 304 304 304 303 303 303 303 302 302 302 294 289 287 292 307 303 298 293 287 288 286 286 294 292 292 292 292 290 292 290 290 293 289 288 291 292 294 297 298 301 302 302 302 302 302 303 304 305 304 305
301 301 301 303 304 304 304 304 303 303 303 302 297 293 288 293 302 300 292 288 287 288 291 289 290 288 292 290 290 291 290 288 287 290 291 288 287 292 295 297 298 299 301 302 299 299 300 299 302 303 304 305 305 305
301 301 302 303 304 304 303 303 303 303 301 294 292 293 296 304 296 292 285 282 282 282 285 287 290 289 293 290 290 291 290 289 287 290 289 286 286 293 296 296 299 300 302 304 304 304 302 303 304 304 305 306 306 306
302 302 302 303 303 303 303 304 303 297 295 296 295 297 297 295 292 287 281 284 283 281 285 284 285 289 289 292 291 291 290 290 288 292 289 285 292 296 298 298 298 300 302 302 302 302 304 305 305 305 306 305 305 306
301 301 302 303 303 304 303 303 302 302 301 298 295 292 288 288 281 281 281 282 282 285 286 287 286 288 290 290 288 288 287 286 289 285 285 289 293 299 300 301 300 300 301 302 303 305 305 306 307 306 305 306 306 306
302 302 302 302 303 302 302 302 302 300 296 289 287 281 282 279 283 282 283 284 287 290 290 289 288 290 288 288 288 286 288 287 282 280 283 288 293 298 301 302 299 298 302 303 304 304 304 304 304 306 306 306 305 305
301 302 302 302 302 302 302 302 302 298 293 287 287 280 282 285 286 288 288 288 291 292 292 290 290 290 289 289 287 285 283 282 283 283 286 294 297 297 299 299 299 300 300 300 302 303 303 302 304 305 305 305 306 306
301 300 298 302 302 302 301 299 297 297 292 289 286 283 286 286 286 286 287 288 291 293 294 293 290 288 288 289 285 283 283 282 285 291 294 295 295 296 296 297 298 300 301 301 302 302 303 303 303 301 304 305 306 305
300 295 301 302 301 301 301 294 293 291 287 286 283 287 287 287 286 288 288 289 293 293 289 290 287 286 290 287 286 288 285 288 291 293 294 295 296 297 298 299 299 298 297 297 298 299 298 299 299 298 299 302 304 304
294 298 301 301 298 297 294 293 290 286 281 284 283 285 286 287 287 287 288 290 292 291 291 289 291 288 287 286 285 290 292 293 293 293 296 296 298 300 301 300 301 302 301 301 299 299 298 297 296 295 295 298 302 301
296 297 301 301 298 292 289 289 291 283 284 285 285 285 285 286 288 289 289 290 294 295 292 289 287 285 287 291 290 290 290 290 289 291 295 301 302 303 303 304 304 302 303 303 303 301 298 295 295 297 299 300 301 299
300 300 300 301 299 292 289 288 292 285 284 285 285 284 284 285 286 287 288 289 291 290 288 287 287 289 291 294 297 295 293 292 291 289 289 293 300 302 301 301 300 300 298 298 297 293 295 294 301 302 302 301 299 298
297 298 299 296 294 293 291 287 286 286 285 282 284 283 283 284 283 284 284 288 286 284 284 288 290 293 294 294 296 297 295 294 290 291 290 289 291 299 298 299 302 300 298 299 297 296 292 295 297 302 300 299 298 298
294 299 294 295 290 292 288 289 286 286 283 283 283 283 282 281 282 283 284 283 284 286 287 287 288 289 290 291 292 292 293 293 291 290 291 291 290 292 295 295 297 298 298 299 300 299 300 298 299 302 301 299 298 299
297 295 291 292 286 281 281 287 283 283 281 282 282 282 282 282 283 285 282 283 284 286 286 286 287 287 287 288 289 289 289 289 288 289 291 292 292 293 292 294 297 296 297 299 300 299 299 295 295 298 300 298 298 298
298 290 286 285 283 280 286 283 283 283 282 281 280 281 281 281 284 282 281 281 289 288 287 288 288 288 288 288 288 289 290 291 290 291 292 291 290 291 292 293 294 294 296 297 298 296 296 295 295 298 300 299 298 297
279 280 282 274 283 283 282 283 283 281 281 282 282 282 283 284 282 282 281 287 291 288 288 287 287 286 285 286 287 288 290 290 289 289 291 293 292 292 292 292 293 294 296 294 293 294 295 297 298 299 298 298 297 297
273 282 280 283 283 282 282 282 283 283 282 282 283 284 283 282 282 282 287 292 291 292 291 290 290 289 289 290 289 289 289 290 289 289 291 291 292 292 292 292 293 295 295 296 295 294 294 295 297 297 297 296 290 298
277 282 283 287 285 286 284 284 285 283 283 282 281 283 281 280 282 288 292 293 291 293 293 292 292 290 290 290 292 293 293 294 293 293 294 292 293 294 293 292 293 296 296 295 294 295 295 296 297 298 299 299 300 299
283 284 281 283 284 285 284 284 284 285 286 288 283 281 282 283 284 290 291 293 293 292 291 292 292 292 292 292 293 293 294 295 295 296 296 296 297 297 296 295 296 292 296 297 298 297 297 298 299 299 299 299 300 301
283 285 286 285 286 286 285 286 287 290 291 287 285 285 285 289 292 292 293 293 292 291 288 288 288 291 291 292 293 293 294 293 292 290 291 291 293 295 297 296 296 296 296 296 289 293 297 297 299 300 301 301 301 302
285 288 285 285 285 285 291 293 291 294 293 293 292 291 291 292 294 296 294 292 289 288 288 288 289 289 289 291 292 294 298 297 295 293 292 292 295 298 299 297 296 295 296 296 296 293 285 291 292 297 299 300 301 302
291 290 288 287 287 291 294 295 295 294 293 292 292 289 288 289 292 294 293 292 291 290 289 288 289 291 291 292 292 292 293 299 301 301 299 299 300 300 299 298 298 297 297 296 296 296 296 297 300 300 300 301 302 301
288 287 288 286 288 292 292 292 292 291 291 290 288 289 288 287 285 289 293 292 290 289 288 289 288 289 292 293 296 298 293 298 299 301 302 303 301 301 300 298 300 300 298 297 297 297 297 298 300 301 301 302 302 303
289 289 289 289 288 288 289 291 291 290 290 288 288 289 288 286 284 288 293 293 292 290 289 290 291 292 293 296 296 297 295 298 297 291 290 292 292 295 301 302 301 302 300 298 298 298 298 300 301 301 302 303 303 304

GFSWCAN_sfc_thetae_279.txt.gz
Theta_e
309 308 308 307 306 305 304 302 301 300 300 302 302 303 304 305 306 301 300 303 310 309 310 312 310 311 310 309 307 309 310 312 309 306 304 303 302 304 304 305 305 303 303 303 302 299 295 312 310 307 313 313 316 315
308 308 307 306 306 304 302 301 300 300 300 300 302 302 303 305 305 300 304 305 307 308 307 306 309 311 309 314 311 312 310 312 310 306 304 304 302 302 303 298 306 301 307 306 307 305 312 313 313 316 314 315 316 315
308 307 307 306 305 304 302 301 300 299 299 301 302 301 302 304 304 303 299 301 305 304 304 301 303 306 310 308 316 307 312 315 316 314 309 307 304 305 301 302 303 307 310 309 308 311 311 314 316 317 317 316 317 317
307 307 306 305 304 304 302 301 300 299 299 301 302 301 301 303 303 303 298 299 305 303 298 298 308 308 312 316 316 315 315 315 314 311 311 310 307 307 304 305 305 307 311 309 308 311 313 315 317 318 317 318 318 316
306 306 305 305 304 303 302 301 300 300 300 301 302 301 301 302 303 301 299 300 304 304 299 302 306 307 310 315 313 313 313 312 310 309 308 308 307 304 304 303 302 308 309 306 304 315 316 315 319 319 316 314 316 315
305 305 304 304 304 303 302 302 301 300 301 302 302 301 302 302 301 301 300 303 304 306 301 298 304 304 308 313 312 311 310 307 307 307 306 306 304 304 302 301 307 308 310 314 310 312 315 316 315 316 314 315 315 315
304 304 304 304 303 303 303 302 301 302 302 303 302 301 302 302 299 299 298 300 302 305 300 296 298 302 304 305 304 309 309 306 306 304 304 304 304 305 301 298 306 308 308 310 311 312 310 311 311 315 316 315 314 316
304 304 304 303 303 303 303 303 302 303 303 303 302 302 302 302 298 297 304 304 303 303 302 294 296 301 304 302 301 303 306 307 305 304 304 302 302 302 298 304 305 304 305 308 310 311 311 314 315 314 314 314 313 313
303 303 304 304 304 304 303 303 303 304 303 303 302 302 299 296 293 299 306 305 306 301 293 296 295 295 302 301 303 302 304 300 302 302 302 303 300 296 301 302 302 303 305 306 310 310 311 312 312 311 312 313 312 311
303 303 303 303 303 304 304 304 303 304 303 302 300 296 290 297 301 306 300 297 297 298 301 297 299 296 301 300 299 301 301 299 295 299 300 299 298 305 306 307 307 307 307 309 307 307 309 309 310 311 312 312 312 310
301 301 301 303 303 304 304 304 304 303 301 297 296 297 301 304 302 296 291 290 290 289 293 296 298 298 302 299 299 301 299 299 294 298 297 296 296 302 306 306 307 308 309 310 312 313 313 313 311 311 311 311 311 311
301 301 300 302 304 304 304 304 304 300 298 299 299 300 302 299 295 290 288 289 288 287 291 292 295 299 299 302 301 300 298 298 293 300 296 294 301 305 307 307 306 308 310 311 311 311 311 312 313 313 312 311 311 312
302 302 301 302 303 303 304 304 302 302 302 301 298 294 292 292 286 285 283 286 287 292 293 293 292 297 298 299 298 298 295 295 299 296 295 299 304 304 307 308 308 307 309 311 309 311 313 313 313 312 311 312 313 310
301 301 302 302 303 303 303 303 303 302 299 293 290 284 286 284 287 288 289 291 294 296 296 295 294 296 296 295 295 293 296 295 290 288 291 299 302 305 305 307 307 306 308 309 310 312 311 311 310 311 311 311 310 309
301 302 302 302 302 302 303 302 302 302 297 290 290 285 286 290 291 293 293 293 296 298 297 295 295 297 295 293 294 292 289 289 290 292 296 302 303 303 304 306 306 307 309 310 311 310 309 309 309 310 311 312 312 311
301 300 299 302 302 302 301 300 300 300 295 292 290 287 290 289 290 291 293 294 297 298 299 298 294 292 292 293 290 290 288 288 292 301 302 303 304 304 303 304 306 307 309 310 310 309 308 308 309 310 311 312 312 312
299 296 301 301 301 301 300 298 298 292 290 288 288 291 291 290 291 292 294 295 298 297 294 295 291 289 295 291 290 294 292 297 299 302 305 305 305 304 305 305 306 308 308 308 308 308 308 308 307 305 304 307 311 312
296 299 301 301 299 298 298 297 293 289 286 289 288 289 291 292 292 293 294 296 297 296 296 293 296 291 290 289 291 296 297 299 300 300 303 305 307 307 307 306 306 306 306 305 304 304 303 302 303 303 303 304 308 311
299 300 301 301 299 296 292 292 294 286 288 290 290 290 291 291 292 294 294 296 299 300 297 294 290 289 290 296 295 295 296 296 296 297 300 305 307 307 307 308 308 308 308 308 308 306 306 304 304 305 305 306 309 312
301 300 300 301 300 294 289 291 295 290 287 289 290 289 290 291 292 293 294 294 298 297 293 291 291 294 295 299 300 299 299 300 298 296 297 299 303 307 306 307 307 305 305 305 305 298 306 306 306 307 307 307 308 310
298 298 299 298 296 295 293 291 290 291 290 288 290 290 290 291 291 291 292 295 294 292 290 294 295 298 300 301 302 302 302 301 299 299 297 296 300 299 302 306 307 305 304 303 304 303 298 302 303 302 304 307 309 309
297 299 296 297 293 293 291 293 291 291 289 288 288 289 288 288 289 290 292 290 291 293 294 295 296 297 297 298 299 301 302 302 301 298 293 295 297 297 297 300 302 302 304 304 304 304 304 305 304 304 306 307 304 307
298 297 295 294 288 286 286 291 287 287 285 286 288 286 287 288 290 291 289 291 292 294 294 294 294 295 295 296 296 297 297 297 297 297 297 296 297 297 298 298 299 299 299 301 305 305 304 301 303 303 305 304 306 305
298 293 289 287 287 284 289 287 288 286 286 285 285 284 286 288 290 288 286 289 292 295 295 294 295 295 296 296 296 297 297 297 297 297 298 298 297 298 300 299 300 300 300 301 301 303 305 305 299 302 302 302 304 304
284 284 286 282 286 285 284 285 285 285 283 285 284 286 289 291 288 287 287 290 292 293 293 294 293 293 292 293 294 295 297 296 295 295 297 298 297 298 298 299 301 302 302 300 300 300 301 302 302 302 301 301 303 304
279 284 285 286 286 284 285 283 285 285 286 285 286 290 290 288 285 284 290 291 292 292 292 292 291 291 292 294 293 294 295 297 295 293 295 297 297 296 296 296 297 299 304 302 301 300 300 300 300 300 301 301 292 302
281 284 287 290 288 288 287 288 288 287 285 285 288 288 288 284 284 288 292 293 292 293 293 293 292 290 290 290 292 294 296 296 294 293 295 297 297 298 298 297 297 300 303 302 302 302 301 301 301 301 302 303 304 303
286 287 284 287 288 289 286 287 287 286 287 289 288 285 284 285 285 290 292 294 293 293 292 292 292 292 291 291 292 293 294 296 296 297 297 297 298 297 297 299 301 293 300 302 302 303 302 301 301 302 303 303 304 305
286 288 288 287 288 288 288 288 288 289 291 288 286 285 286 289 293 292 293 293 293 291 289 289 289 291 291 291 292 292 293 293 291 290 290 290 293 296 299 299 300 301 301 301 292 293 300 302 303 305 305 306 306 306
288 292 289 288 287 286 290 292 291 293 294 293 292 291 291 292 294 296 294 292 290 289 289 289 290 289 289 290 291 293 297 297 297 293 291 291 294 298 300 301 301 302 302 301 301 301 286 294 296 301 301 303 305 305
290 291 289 289 288 291 293 296 296 295 295 293 293 290 288 290 293 296 294 293 292 291 290 288 289 290 290 290 290 290 290 295 297 298 299 299 298 299 300 301 301 301 302 301 301 301 299 298 301 302 303 303 304 302
288 289 288 286 289 293 295 293 292 291 292 291 290 291 290 288 286 291 295 293 291 289 287 288 288 288 291 292 293 294 291 295 296 298 298 298 300 302 301 301 301 300 301 301 300 300 300 299 300 302 302 303 304 305
290 290 291 290 289 290 293 293 291 290 290 288 288 289 288 287 285 290 295 295 292 291 288 288 289 291 292 293 293 294 293 296 297 290 287 288 292 296 303 303 303 302 301 299 299 300 300 300 301 302 302 304 305 306

GFSWCAN_sfc_thetae_282.txt.gz
Theta_e
310 310 309 308 307 306 305 304 303 302 301 302 302 303 305 306 306 305 309 315 316 313 316 318 316 316 317 316 309 318 316 317 315 310 309 309 307 311 309 311 309 307 305 304 306 301 296 316 314 308 318 321 320 320
309 309 308 307 306 305 305 303 302 301 300 300 302 303 303 305 305 304 309 317 316 314 314 315 316 316 314 316 317 321 318 319 318 312 314 315 307 311 309 303 313 304 309 306 305 304 318 321 321 322 320 319 321 321
309 308 307 307 306 305 304 303 301 300 299 300 302 302 302 304 304 304 310 315 315 310 308 309 312 314 317 315 320 314 320 323 325 324 318 315 308 312 304 305 307 312 315 308 309 310 316 320 322 323 322 322 321 322
307 308 307 306 306 305 304 302 301 300 300 300 301 302 302 303 303 303 307 312 313 310 301 304 313 310 315 321 321 321 320 326 327 321 319 315 309 316 309 310 308 312 315 310 310 312 315 318 322 322 323 322 321 320
307 307 307 306 305 305 304 302 301 300 300 300 302 302 301 302 303 304 307 311 314 309 302 305 312 314 315 321 319 321 324 322 317 314 314 313 317 314 315 312 308 314 311 308 305 313 314 314 322 324 322 322 322 319
306 307 306 305 305 304 303 303 301 300 300 301 302 302 302 302 302 304 303 310 314 315 306 302 310 312 315 319 316 314 316 315 314 312 313 316 313 313 308 305 312 314 317 320 314 317 318 320 323 324 322 320 319 319
306 305 305 305 304 304 303 303 301 301 301 302 303 301 302 302 303 303 302 307 306 315 305 299 303 310 314 316 314 314 316 314 311 311 307 310 311 309 306 302 310 312 313 315 317 316 314 318 314 322 320 321 319 321
305 305 305 304 304 304 303 302 302 302 302 303 302 302 302 303 302 301 309 304 306 309 306 299 301 306 312 307 307 314 310 311 310 308 308 304 308 307 300 305 308 309 310 310 314 318 316 315 319 320 322 320 318 317
304 305 304 304 304 303 303 304 303 303 304 303 303 302 303 300 297 304 306 305 314 308 300 299 298 299 310 309 311 308 311 302 310 303 304 306 301 299 303 306 305 306 307 307 310 315 315 315 317 318 318 318 316 315
304 304 304 304 304 303 303 304 304 304 303 303 301 298 293 299 308 308 305 305 304 305 304 299 306 302 307 306 304 305 306 302 299 302 307 301 300 308 310 311 310 310 310 310 308 308 312 312 315 316 317 317 317 314
303 303 304 304 304 304 304 304 304 304 303 300 298 300 305 306 306 301 295 294 298 295 299 300 302 303 309 303 303 307 303 303 296 301 300 300 299 305 311 310 311 312 313 313 315 314 315 315 316 317 316 316 315 314
302 302 302 303 304 304 305 305 304 302 300 301 304 306 307 303 298 292 292 294 292 292 297 297 300 307 306 312 305 305 301 302 295 305 300 296 303 309 311 312 313 314 313 313 316 315 316 317 318 318 317 315 315 313
301 302 302 303 304 304 304 305 304 302 303 306 302 299 298 298 290 287 284 288 290 295 297 297 296 304 305 307 305 303 298 297 307 300 297 301 311 311 314 314 314 313 314 314 315 316 317 318 318 318 315 315 314 312
302 302 302 302 304 304 304 305 303 303 303 299 294 286 290 288 291 292 293 294 299 300 298 298 298 301 305 301 304 296 300 303 295 293 294 302 309 312 312 313 313 312 312 313 314 315 316 317 316 315 314 314 312 312
301 301 301 302 303 304 304 304 303 304 302 295 294 288 289 295 297 298 298 298 302 305 302 298 300 302 300 299 300 299 295 292 295 294 301 308 310 310 311 312 313 313 314 314 315 315 316 316 314 312 313 313 314 314
301 300 299 302 303 303 303 302 302 304 300 297 295 291 295 293 293 295 297 298 303 304 304 303 296 294 294 297 295 294 292 292 297 305 309 311 310 311 311 312 312 315 315 316 316 316 315 313 312 312 313 313 313 314
300 297 300 301 301 301 301 301 300 295 294 291 293 299 298 296 295 297 300 299 305 302 298 300 293 291 300 293 292 299 296 301 306 308 310 310 310 310 311 312 313 313 315 316 315 315 314 313 313 313 313 314 313 314
298 301 301 300 302 301 302 300 296 294 287 294 291 294 298 299 297 298 300 302 301 301 301 297 302 295 293 290 293 301 305 306 307 308 310 310 311 311 311 311 311 313 314 314 313 312 312 310 308 308 309 310 311 313
299 300 301 301 301 299 294 295 297 289 291 294 297 298 298 299 301 301 302 303 304 305 302 300 295 295 297 302 302 302 303 305 303 305 307 310 312 311 311 311 311 311 311 310 310 308 308 308 308 310 311 310 310 314
301 301 301 301 302 297 292 293 300 293 289 292 295 293 294 295 298 298 298 299 299 299 295 293 294 298 300 303 306 305 306 307 305 303 304 305 308 309 311 311 312 312 311 311 311 300 310 310 311 310 310 309 309 309
299 300 300 302 301 299 297 294 292 295 295 293 295 295 294 296 295 295 295 299 296 294 293 297 297 300 304 304 306 306 304 304 303 303 302 302 305 305 305 307 309 309 309 308 308 307 303 308 308 311 310 310 310 311
299 299 298 299 296 295 295 299 295 296 294 294 293 294 292 291 292 294 298 294 293 294 296 297 298 298 299 300 301 303 303 304 305 303 296 298 301 302 303 304 304 304 305 306 306 304 306 308 309 309 307 308 306 311
299 299 299 297 290 290 289 298 291 292 288 290 293 290 290 291 294 297 292 294 296 300 301 300 299 301 300 301 301 302 302 302 301 302 302 302 302 302 302 302 303 302 302 304 306 305 306 301 304 306 308 307 307 307
298 296 291 291 291 288 293 289 293 290 290 289 289 287 289 292 295 292 289 293 297 301 301 300 301 299 300 301 300 301 302 303 301 302 302 301 300 301 302 302 302 303 303 303 303 304 305 305 300 305 306 305 306 306
289 288 290 286 291 288 286 288 288 289 287 289 287 289 292 295 289 289 289 292 293 296 297 298 298 298 297 298 299 300 303 302 300 300 302 303 303 303 303 303 304 305 306 304 304 303 303 304 304 304 304 304 304 304
285 288 288 289 289 287 289 285 286 287 289 287 289 295 296 293 287 286 290 292 294 295 294 293 294 295 296 297 297 298 299 301 300 299 301 302 302 301 301 300 301 303 307 306 305 304 304 304 303 303 302 303 293 301
285 287 292 296 293 292 291 293 293 291 287 287 291 291 291 285 286 289 293 294 293 294 294 294 293 292 291 292 294 295 296 297 296 296 299 300 301 302 301 300 300 303 306 306 306 305 305 304 304 304 303 304 305 306
289 290 286 290 292 293 288 289 288 288 288 290 290 286 285 285 286 291 293 294 294 294 293 293 294 293 292 292 293 293 293 295 295 296 297 298 300 300 301 301 302 294 302 305 305 305 305 305 305 305 305 304 305 307
290 294 293 289 290 291 290 290 288 289 291 289 288 288 287 290 293 292 293 294 294 293 291 290 290 292 292 292 293 293 293 292 291 290 290 290 293 296 300 301 300 302 303 303 294 296 304 304 305 306 306 306 307 307
290 294 291 290 289 288 290 293 292 294 296 295 294 292 291 292 294 297 296 294 292 291 291 291 291 290 289 289 290 292 295 295 295 293 291 291 293 298 300 299 299 300 301 302 303 304 289 296 298 302 303 307 308 307
291 291 289 289 289 291 294 298 298 297 295 294 294 291 290 291 294 298 296 295 294 293 290 289 289 290 290 290 289 289 289 295 296 296 296 296 296 297 298 299 301 301 301 301 302 302 303 302 302 302 303 305 306 304
290 290 290 288 290 294 295 293 294 292 292 291 291 292 291 290 287 293 296 296 293 290 289 289 288 288 291 292 293 294 290 294 295 295 295 297 299 299 299 300 301 301 301 300 301 303 303 302 303 303 304 305 306 307
293 294 293 292 291 291 294 293 291 290 291 290 290 292 291 289 286 293 299 299 296 294 293 293 292 291 291 292 294 295 293 294 294 290 287 286 289 294 303 304 302 301 300 300 301 303 303 303 303 303 305 305 306 306

GFSWCAN_sfc_thetae_285.txt.gz
Theta_e
310 310 311 310 308 307 306 305 304 303 303 303 304 304 305 306 306 307 312 322 320 314 318 318 319 319 319 317 312 322 316 317 316 311 310 309 309 310 310 311 310 309 307 305 306 303 299 318 314 308 320 323 322 321
310 310 310 309 307 307 306 305 303 302 302 301 302 303 304 306 306 305 311 320 321 315 316 321 322 321 320 318 321 324 320 319 323 313 313 313 309 312 310 305 316 307 312 309 308 307 317 318 319 322 324 322 323 322
310 309 309 308 307 306 306 305 303 302 301 300 301 303 303 304 305 304 311 316 316 310 310 311 312 320 323 321 324 317 318 328 328 330 319 315 310 313 307 308 310 314 317 309 309 312 313 317 319 323 325 324 324 324
309 309 308 307 306 306 305 304 302 302 301 300 301 303 303 303 304 304 308 316 316 313 305 308 315 316 320 324 324 324 322 328 330 325 315 312 309 316 310 311 311 313 316 311 310 314 315 316 318 322 324 324 322 323
308 308 308 307 306 305 305 304 302 301 301 300 301 302 302 303 304 305 309 314 318 313 306 307 314 314 319 322 322 321 324 323 318 316 314 312 315 317 316 314 309 314 313 309 307 315 315 316 320 323 320 321 322 321
307 308 307 307 306 306 304 303 302 301 300 300 302 303 302 303 304 307 303 311 316 317 309 303 314 313 315 320 321 319 319 317 315 313 313 317 321 317 309 307 315 316 317 319 314 319 320 319 320 321 319 320 322 319
306 307 307 307 306 305 304 303 302 302 301 301 303 302 302 303 305 304 305 309 307 319 307 301 304 312 314 317 318 317 318 315 313 312 310 312 313 312 308 303 312 314 315 316 317 317 314 314 314 318 319 322 319 320
306 306 306 305 305 304 304 303 302 302 301 302 303 302 303 303 303 303 310 303 307 311 308 301 305 308 315 309 309 315 312 313 312 310 311 308 310 310 303 309 311 312 312 311 313 316 315 317 317 319 323 321 319 318
305 305 305 305 305 304 304 304 303 303 303 304 303 303 305 302 300 307 307 307 314 313 303 301 301 301 313 310 310 311 311 306 311 306 306 307 304 301 306 308 308 309 309 309 311 313 315 314 315 319 320 319 316 318
304 305 305 305 304 304 304 304 304 303 304 304 303 301 297 302 308 310 308 307 306 307 307 302 305 306 308 308 307 307 308 304 302 305 309 304 303 311 310 312 312 310 310 311 309 309 313 313 313 317 318 318 318 319
304 305 305 305 304 304 304 304 305 305 303 302 300 302 307 306 306 303 298 298 301 298 302 302 304 305 311 305 305 308 305 305 298 303 303 301 301 307 311 312 314 314 313 313 314 314 315 315 315 317 318 319 319 318
304 304 305 305 304 304 304 304 305 303 303 303 306 306 306 304 300 294 294 296 296 294 301 300 302 307 309 315 308 308 303 304 297 308 302 298 305 310 312 311 313 316 316 314 314 314 316 315 316 319 320 319 319 317
303 304 304 304 304 304 305 305 304 304 302 308 305 298 299 299 290 289 287 292 293 299 301 302 301 307 310 310 306 305 299 299 308 301 299 302 313 312 314 315 315 316 315 315 315 317 317 317 319 320 320 320 318 315
303 303 304 304 304 304 305 305 304 303 305 300 296 287 293 291 293 293 294 296 301 301 301 302 302 303 305 302 304 298 302 303 297 296 297 305 312 314 317 316 314 314 314 315 315 316 316 317 319 321 320 319 315 314
303 303 303 304 304 304 304 305 304 305 302 297 297 289 291 297 300 301 302 302 303 305 302 300 302 303 302 300 302 300 297 294 297 297 303 313 315 315 315 316 316 315 316 315 316 316 316 317 319 319 319 317 316 316
302 301 302 303 304 304 304 304 303 304 302 298 297 294 297 295 296 298 299 300 305 305 305 303 299 297 297 298 296 295 294 293 299 306 311 314 314 314 316 316 316 316 317 316 316 316 317 318 318 318 317 316 315 315
300 298 301 303 303 303 303 304 301 298 297 294 294 299 297 297 296 298 300 302 308 303 299 301 294 293 300 295 295 299 296 302 308 310 312 314 314 314 316 316 315 317 317 317 317 317 318 319 318 316 314 315 317 317
298 301 301 301 303 302 303 302 298 297 291 295 294 296 297 301 300 298 304 305 303 301 302 298 303 297 294 292 294 300 307 308 310 311 313 314 316 315 314 314 314 316 317 318 317 317 318 316 315 314 317 317 314 314
300 300 300 301 301 299 295 296 299 292 293 295 297 300 298 299 301 302 302 304 305 305 303 301 296 296 297 301 302 304 304 307 306 308 311 315 317 314 314 314 314 314 315 316 317 315 315 316 315 314 312 312 311 312
301 301 301 302 301 297 292 294 302 295 292 296 296 294 295 296 300 300 300 300 301 300 296 295 296 298 299 302 305 305 305 307 306 305 306 308 310 312 312 312 312 315 314 314 314 300 313 312 313 313 314 311 311 311
300 300 301 302 301 300 298 294 293 295 296 293 296 296 295 298 295 295 296 300 296 295 295 298 299 301 304 305 307 305 305 306 305 304 304 304 306 307 307 308 310 311 310 310 309 308 306 310 311 314 313 311 311 311
301 299 301 301 298 298 297 299 297 297 295 296 295 296 294 293 294 294 299 296 294 297 299 299 300 301 301 303 304 305 305 305 306 305 299 301 303 303 304 306 306 305 306 307 308 307 309 310 311 312 311 311 306 311
300 301 301 298 293 292 291 299 293 294 290 291 294 291 292 293 295 299 293 295 296 300 302 302 301 303 302 303 303 304 304 304 302 303 303 304 305 305 304 304 305 304 304 305 307 307 307 303 306 308 309 309 309 309
297 296 292 292 292 289 295 291 296 293 293 291 290 288 291 293 298 293 290 294 298 302 302 301 301 300 301 301 301 301 301 303 302 303 304 303 301 302 304 304 304 304 305 305 305 306 307 306 302 307 307 306 307 306
290 290 291 285 293 290 288 289 290 291 288 290 289 290 293 296 291 291 290 296 298 299 298 299 300 299 298 299 301 301 304 302 300 300 303 304 303 303 302 303 304 305 306 305 305 304 305 305 305 305 304 305 305 305
285 291 288 291 292 289 291 287 288 289 291 289 291 295 296 294 289 289 293 295 295 295 295 295 297 297 297 299 298 299 299 302 301 300 302 303 302 301 301 301 301 302 307 307 305 304 303 304 304 304 304 303 292 302
286 288 295 299 296 295 293 295 295 294 289 289 294 293 293 287 288 290 294 296 295 296 296 296 295 294 293 294 295 297 297 297 296 296 299 299 301 303 301 300 301 304 307 307 306 305 304 304 305 305 305 306 306 305
292 293 288 292 293 295 290 291 290 288 290 293 294 286 286 287 286 293 293 296 296 296 295 295 295 294 293 293 293 293 293 295 295 295 295 296 298 299 301 302 303 295 303 305 305 306 306 305 305 305 305 304 306 307
292 297 295 291 292 293 291 290 290 291 293 292 289 289 288 292 294 294 295 299 297 295 292 292 292 294 294 294 294 294 295 294 292 290 290 289 291 295 300 302 302 303 304 303 294 296 303 304 305 303 302 305 306 307
293 297 293 291 289 289 292 295 294 297 297 297 296 294 292 293 294 298 298 296 294 293 293 292 292 292 291 292 292 294 296 296 296 293 290 290 292 296 297 298 298 300 304 302 300 301 291 296 300 303 303 304 307 307
293 293 291 291 289 294 298 298 299 299 297 295 296 291 291 293 297 299 298 297 296 296 295 295 296 296 292 291 290 289 289 294 295 295 295 295 295 295 296 297 297 298 299 300 300 299 300 300 303 303 302 303 304 303
293 293 293 290 291 297 299 295 296 294 293 292 293 294 292 291 290 296 298 298 296 295 291 294 295 295 295 294 293 293 290 294 294 294 295 296 297 298 298 300 300 299 298 298 299 299 300 299 301 302 303 303 304 305
295 296 295 294 294 293 294 293 292 291 292 292 292 293 293 292 288 295 300 301 297 295 294 295 296 297 297 296 295 294 292 294 294 289 289 288 286 291 297 305 303 301 300 298 297 298 300 301 302 303 303 302 303 304

GFSWCAN_sfc_thetae_288.txt.gz
Theta_e
309 310 312 311 310 308 308 307 305 304 303 304 305 305 305 306 307 306 312 324 320 316 318 320 321 320 320 319 314 323 317 317 316 309 307 307 306 310 310 313 310 311 304 300 308 303 299 317 315 310 321 326 318 321
309 310 310 310 309 307 307 306 305 304 302 302 303 304 305 305 307 306 311 321 320 313 314 321 320 323 321 320 319 327 321 322 322 314 312 312 309 314 314 305 315 306 314 310 310 306 321 318 323 325 325 322 322 323
310 310 310 309 308 307 306 306 304 303 302 301 301 303 304 304 306 305 309 313 316 310 310 311 311 320 322 322 325 318 321 326 330 333 318 316 312 313 307 307 310 314 319 311 313 312 314 316 318 318 322 322 325 325
309 310 310 308 307 306 306 305 304 303 302 300 300 302 304 304 305 304 310 315 314 314 306 309 321 318 322 323 323 324 323 330 332 322 316 313 308 317 309 311 310 313 315 313 311 314 314 316 319 321 324 324 321 323
308 309 309 308 307 306 306 305 304 303 302 300 300 302 303 304 305 305 308 311 316 314 309 309 315 315 317 321 322 322 324 325 317 313 311 309 313 316 315 315 310 314 315 308 308 318 316 316 319 323 320 320 322 322
308 308 308 307 307 306 305 305 304 302 301 300 301 303 303 304 305 306 304 310 314 317 310 304 314 313 315 317 320 321 321 320 314 312 312 314 324 317 310 308 319 317 318 321 315 319 319 320 321 320 319 319 322 322
308 308 307 307 306 306 305 304 303 302 301 301 302 303 303 303 304 304 304 308 306 318 307 301 303 313 315 314 317 318 321 315 313 311 310 311 313 314 309 306 316 316 315 316 317 317 314 316 314 316 318 322 321 321
307 307 307 307 306 305 305 304 303 302 301 301 303 303 303 304 303 304 310 305 306 311 308 301 303 309 315 308 309 316 313 314 313 311 311 309 310 312 304 312 312 313 313 313 314 315 316 317 317 317 320 323 319 318
307 307 307 306 306 305 304 304 303 302 302 303 303 303 305 302 300 308 311 308 315 313 304 301 300 301 313 310 311 312 312 307 313 307 307 308 305 302 308 312 310 310 310 310 311 311 312 313 314 316 320 320 317 317
305 306 306 305 305 305 304 304 304 303 303 304 302 301 298 302 310 310 310 306 305 306 309 304 305 304 310 307 306 308 310 304 302 306 309 305 304 313 314 312 312 312 311 311 309 308 310 312 313 314 319 320 318 318
305 305 305 305 305 305 304 304 304 305 304 302 301 302 306 308 306 304 299 300 301 298 302 302 305 304 312 305 306 309 305 305 298 302 303 301 301 310 315 314 313 314 313 312 313 313 314 314 315 315 317 320 320 320
304 305 305 305 305 304 304 304 304 303 302 303 305 307 304 303 300 295 295 297 297 296 302 300 302 306 310 314 308 308 303 305 297 308 302 298 306 314 311 311 312 315 314 314 313 313 314 314 315 317 320 321 321 320
304 305 304 304 304 304 304 305 304 304 305 309 305 297 298 299 291 289 288 293 294 299 302 303 301 305 311 311 308 306 301 299 307 301 299 303 311 311 313 314 314 316 316 315 315 314 314 315 317 317 321 323 322 317
304 304 304 305 305 305 305 305 305 304 303 300 297 287 294 291 294 294 295 297 301 302 303 303 302 303 307 304 304 298 302 303 297 296 297 305 313 315 316 315 314 314 315 314 314 315 315 315 316 320 322 323 320 316
303 304 304 304 304 305 305 305 304 303 301 299 297 288 292 298 299 300 302 303 303 305 303 303 304 304 303 300 302 300 297 294 297 297 303 314 318 317 316 315 315 315 315 315 315 315 315 316 318 321 322 323 320 319
303 303 303 304 304 304 305 304 301 303 303 298 297 295 296 296 297 301 302 302 305 304 304 303 300 298 298 300 297 296 294 294 299 307 313 316 316 316 316 316 315 316 317 316 316 315 315 315 319 323 322 320 318 317
302 299 303 304 304 304 304 302 302 299 297 294 295 299 298 298 298 300 301 302 307 304 298 300 296 295 301 296 295 299 297 302 309 311 314 316 315 315 316 315 315 315 316 318 317 316 316 318 323 320 318 318 319 319
298 302 303 304 303 303 304 303 299 297 292 295 293 296 300 300 300 300 304 306 305 303 302 298 302 297 294 293 295 301 305 310 311 312 313 315 316 315 315 315 315 315 316 317 318 317 317 318 318 317 321 321 318 319
299 301 302 302 303 301 295 298 301 292 293 295 298 300 300 300 303 304 304 305 306 306 304 302 297 296 297 301 301 305 306 306 306 309 312 314 315 314 314 314 314 314 315 316 316 316 316 318 317 317 317 318 316 315
301 301 301 301 301 298 293 296 301 295 293 295 298 298 299 299 302 302 303 303 301 301 298 297 297 299 300 302 305 306 306 308 307 305 305 308 311 312 312 313 312 315 314 314 314 304 313 314 315 316 314 314 312 312
300 299 300 301 301 299 297 296 295 296 297 294 297 297 296 298 297 297 298 301 298 296 295 298 299 301 305 305 306 306 306 307 306 305 305 304 307 307 308 308 310 310 309 309 308 308 308 311 313 314 314 313 313 311
300 301 299 299 295 296 296 299 296 298 296 296 295 295 293 292 293 296 300 297 296 297 299 299 300 301 302 303 304 306 306 306 306 304 300 302 304 304 305 306 305 304 306 306 306 306 307 311 313 313 312 312 309 311
300 301 299 298 293 293 291 300 293 294 290 292 295 292 292 293 296 300 294 296 298 301 302 302 303 303 304 304 305 305 305 304 302 303 304 303 304 305 305 305 306 305 304 305 307 307 308 305 305 309 309 309 310 310
297 297 294 293 292 289 296 293 296 293 294 292 291 290 291 294 298 294 291 295 298 301 301 302 302 300 301 302 300 301 303 304 303 304 304 303 303 303 304 304 304 305 306 306 306 307 308 307 303 307 308 307 308 307
291 290 291 285 294 290 289 289 290 290 288 291 290 291 293 296 291 290 291 296 299 298 300 301 301 300 298 298 300 301 304 302 300 300 303 304 303 304 304 304 305 306 307 306 306 305 306 306 305 306 306 306 306 306
284 291 288 290 291 290 291 287 289 290 291 290 291 296 297 294 289 289 292 296 298 298 299 298 298 298 298 299 298 299 301 302 301 299 301 302 302 301 300 300 301 303 308 307 306 305 305 305 305 305 304 304 294 301
286 289 294 298 296 295 293 294 295 294 290 289 293 293 293 288 288 290 295 297 297 298 298 298 296 295 295 297 298 299 299 298 296 296 298 299 300 301 300 299 300 303 307 306 306 305 304 304 304 305 305 305 306 306
293 294 290 294 294 296 292 293 291 290 291 294 295 288 288 288 287 293 295 299 298 297 296 296 297 296 294 293 294 294 294 295 296 296 297 297 298 298 298 298 300 294 301 303 303 304 304 304 304 305 305 305 306 307
293 296 296 292 293 292 291 291 291 294 294 294 291 290 290 294 296 298 298 298 298 296 294 293 294 297 295 296 296 296 296 295 293 291 290 290 292 294 299 299 299 299 300 302 295 295 302 302 303 303 304 305 305 307
294 298 294 292 290 290 294 298 296 298 299 297 297 295 294 294 296 300 300 298 296 295 295 296 297 296 295 294 292 293 295 294 294 292 289 289 290 294 295 296 296 297 298 298 298 298 293 293 298 302 301 303 303 305
297 296 292 293 291 295 298 300 300 299 298 296 296 294 292 294 298 300 299 299 298 297 297 295 296 298 297 294 292 291 290 294 295 295 294 294 294 295 297 297 298 297 297 297 296 296 296 298 299 300 302 301 303 301
294 294 293 291 293 298 300 298 296 294 294 296 294 295 295 294 291 297 299 299 297 295 291 293 295 295 298 298 296 296 290 294 295 295 295 296 296 296 297 300 301 300 298 297 296 296 295 296 299 299 301 302 302 302
295 296 296 294 294 294 297 295 294 292 294 293 292 293 294 293 287 295 301 301 298 296 295 295 296 297 298 300 298 297 292 296 294 289 288 288 288 290 294 300 302 303 301 298 297 296 296 297 298 299 300 302 302 303

GFSWCAN_sfc_thetae_291.txt.gz
Theta_e
310 310 310 311 311 310 309 308 307 305 304 305 305 306 307 307 308 304 304 314 314 311 315 316 317 314 314 313 310 316 314 313 312 302 302 301 301 304 305 310 307 306 301 298 298 295 295 316 314 307 313 313 314 317
309 309 309 310 310 309 308 308 307 305 303 303 304 305 306 306 307 307 306 316 317 309 310 315 316 318 320 317 314 316 318 318 323 315 311 310 307 307 305 300 312 305 307 303 304 301 310 314 312 318 316 314 319 315
309 309 309 310 309 308 308 307 306 305 303 302 302 304 305 305 306 305 302 308 313 309 308 307 309 317 319 321 323 313 318 320 323 326 316 311 305 307 302 305 304 310 313 305 303 306 311 314 315 320 318 319 320 318
309 309 309 309 309 308 307 306 306 304 303 301 301 303 304 305 306 305 303 309 310 311 305 308 321 317 321 320 321 321 317 322 323 321 311 308 305 309 302 305 303 308 308 306 306 308 312 316 318 320 319 319 319 318
308 309 310 309 308 307 307 306 305 304 303 301 301 302 304 305 306 304 303 307 309 310 306 308 313 313 318 317 318 318 317 318 312 308 306 304 307 310 309 308 305 309 305 303 303 309 309 311 317 321 319 317 317 316
307 308 309 308 308 307 306 305 305 304 302 301 301 303 304 305 305 302 303 310 308 313 306 303 311 312 313 314 315 317 316 316 312 306 306 309 317 311 304 302 311 311 312 312 311 314 312 312 315 316 314 314 319 318
307 308 308 308 307 306 306 305 305 303 302 301 302 303 304 304 301 301 302 305 304 309 306 300 301 311 314 312 311 314 317 312 311 307 306 306 307 308 304 299 310 312 311 311 311 310 307 310 308 310 315 319 319 319
307 308 308 307 307 306 305 305 304 303 302 301 302 304 305 304 303 300 307 306 303 310 308 298 300 305 312 305 304 314 311 311 309 307 307 304 306 307 300 306 309 310 310 310 310 311 310 311 309 311 319 317 315 315
307 308 307 307 306 305 305 305 304 303 302 302 303 304 303 300 299 307 311 309 312 310 304 300 297 299 311 306 307 310 310 303 311 304 304 305 302 298 304 306 309 309 307 305 307 308 308 309 308 313 317 315 313 313
307 307 307 306 306 305 305 304 304 303 302 303 302 299 298 302 311 312 309 305 304 305 309 302 305 300 308 305 304 307 306 301 298 303 306 301 299 306 310 309 308 308 309 306 302 301 302 305 308 310 316 316 315 316
306 307 307 306 306 305 305 305 304 304 303 299 299 301 308 310 307 304 299 299 299 296 300 300 301 301 311 301 302 307 302 302 295 298 300 298 297 304 309 309 312 309 309 307 307 305 304 306 310 311 316 318 317 314
306 306 306 305 305 305 305 305 305 302 301 301 301 307 306 302 299 295 294 297 297 294 300 297 298 303 306 312 306 306 300 302 295 305 300 294 301 307 310 311 311 312 310 309 310 309 309 310 310 311 314 317 315 313
305 305 305 305 305 305 305 304 304 303 304 307 302 299 298 298 288 289 288 292 293 299 301 301 298 303 308 310 306 305 299 297 305 298 296 299 307 312 312 311 312 312 312 312 312 312 311 311 312 312 317 316 313 312
304 304 304 304 304 305 304 305 305 303 299 300 297 286 292 290 293 293 293 296 300 301 302 302 300 302 306 303 303 300 302 301 295 292 295 302 312 312 312 313 311 310 312 311 312 312 311 310 311 318 318 315 313 312
304 304 304 304 304 305 305 305 304 302 298 298 298 288 291 297 298 299 299 300 302 305 303 302 303 303 302 301 300 299 296 294 295 293 303 311 313 314 313 314 312 312 312 312 312 312 312 312 318 317 317 315 315 314
303 303 302 304 304 305 305 304 301 302 301 299 297 294 296 295 295 298 299 301 305 305 305 304 302 298 298 299 297 295 294 293 298 308 311 313 312 313 313 313 314 314 314 314 315 314 313 312 317 317 317 315 314 313
303 299 303 303 304 304 304 301 299 297 297 295 295 298 297 297 298 300 302 303 308 303 298 300 296 295 300 296 296 298 295 302 309 310 312 313 311 312 313 315 314 314 313 314 315 314 312 318 318 316 313 313 313 313
300 302 304 303 303 302 301 301 299 297 292 295 293 296 300 302 301 302 305 307 305 303 303 299 302 297 295 294 294 301 305 309 310 312 312 313 313 313 313 312 313 314 315 315 316 315 314 315 315 314 314 313 313 312
302 302 304 303 303 300 295 297 300 292 292 294 296 299 300 301 304 305 304 306 307 307 303 301 298 295 296 300 300 302 303 304 305 309 311 312 312 312 313 313 312 312 312 311 311 311 311 313 313 314 313 313 310 311
301 301 301 302 302 298 293 295 302 295 292 294 297 297 299 299 302 303 303 303 301 301 298 297 298 299 298 301 304 304 305 306 305 303 304 306 307 308 308 309 308 310 310 311 310 304 308 309 310 312 310 309 310 309
300 299 301 300 301 299 297 295 293 295 296 295 297 297 297 300 298 298 299 302 297 296 294 298 299 301 304 304 306 306 305 304 303 303 302 301 304 304 305 306 307 307 305 304 304 304 302 307 308 309 309 309 309 309
299 300 299 299 295 296 295 300 296 299 296 296 296 297 295 294 294 296 299 296 295 296 298 299 300 301 301 303 304 304 305 305 304 303 300 301 301 302 303 303 303 302 302 302 302 302 302 304 309 308 308 308 306 309
300 300 297 295 290 291 289 300 293 295 291 292 295 292 292 293 296 300 294 296 297 301 302 302 302 304 303 304 305 305 305 303 302 301 302 301 302 302 302 302 302 301 301 302 304 303 303 301 303 306 307 306 307 307
301 296 293 292 292 288 295 292 294 293 293 291 291 289 291 293 298 294 291 294 298 300 301 303 302 301 302 303 300 301 302 302 301 301 302 302 301 301 303 303 303 303 303 304 303 303 303 303 300 304 306 306 305 305
290 288 290 285 293 290 289 289 290 290 288 291 289 290 292 296 291 290 290 295 298 298 300 301 300 299 297 298 300 300 303 300 298 298 300 301 300 300 300 301 301 303 305 303 302 303 304 304 303 303 303 304 304 303
284 290 288 290 290 289 290 287 288 289 290 289 291 294 296 293 289 288 292 295 296 297 297 297 296 296 296 298 296 297 297 299 298 296 298 299 297 297 296 296 296 298 303 303 301 301 300 301 302 303 302 302 293 299
285 289 293 297 295 294 292 293 294 292 290 289 293 292 292 287 287 290 294 296 295 297 298 297 296 295 294 295 296 296 297 297 296 295 297 297 298 298 297 295 295 298 301 301 300 299 300 300 300 302 302 303 303 304
291 294 290 293 294 295 291 291 290 289 290 292 294 287 287 287 287 293 295 298 297 297 296 296 296 295 295 295 295 295 295 296 297 297 297 297 298 299 299 299 298 293 297 299 298 298 299 299 299 300 300 300 302 304
293 296 295 292 293 292 292 291 291 292 295 294 290 289 288 294 297 297 297 298 298 297 294 293 294 297 297 297 296 297 297 295 292 290 289 289 290 293 296 296 296 297 297 297 292 291 296 297 298 299 300 301 302 303
293 298 293 292 290 290 293 297 295 297 298 297 296 294 294 295 298 300 300 298 296 295 296 297 297 297 296 295 295 295 296 295 295 292 289 289 290 294 295 295 295 296 297 296 296 296 291 293 295 297 298 299 300 300
296 296 293 293 292 296 298 299 300 299 298 296 296 293 293 294 297 299 300 300 298 298 297 296 295 297 297 296 295 292 292 296 296 295 295 295 295 295 295 297 297 298 298 297 296 296 295 295 295 295 296 298 300 298
293 293 293 291 292 298 300 296 296 295 295 295 294 295 295 294 290 297 300 299 297 296 292 293 294 294 298 300 300 297 290 295 296 296 296 296 296 297 297 296 296 297 298 299 298 297 296 295 295 295 295 297 299 301
295 296 296 294 294 293 296 295 294 292 294 293 293 294 295 294 287 295 301 301 298 297 296 296 297 297 297 299 299 299 293 298 296 290 289 288 288 290 291 295 297 299 300 299 300 298 297 296 295 295 295 298 299 300

GFSWCAN_sfc_thetae_297.txt.gz
Theta_e
310 310 310 310 311 311 311 310 308 306 305 306 306 307 307 308 308 302 300 304 302 299 301 308 307 304 307 305 302 306 304 310 307 296 296 296 294 298 301 303 301 299 296 293 294 290 291 309 310 302 304 307 312 310
309 310 310 309 310 311 310 309 308 306 305 304 305 306 307 307 308 305 297 300 303 300 296 306 308 308 308 311 306 309 309 310 314 304 301 301 299 299 298 296 304 299 302 299 298 297 304 309 305 309 311 311 312 310
307 310 309 309 309 310 310 309 308 307 305 303 304 305 306 306 307 304 293 297 301 302 302 301 300 309 311 313 314 310 309 313 307 313 307 302 298 299 294 296 297 302 305 299 299 300 305 308 311 312 313 313 313 311
307 309 309 308 309 309 309 309 308 307 305 302 303 304 305 306 306 304 292 294 300 302 297 301 311 309 314 313 314 311 312 311 311 308 301 299 298 299 296 299 299 301 302 300 300 303 307 309 312 314 315 314 312 311
306 308 309 309 309 309 309 308 308 306 305 302 302 304 305 306 306 300 294 294 297 301 299 301 306 308 310 310 313 312 311 306 302 297 299 298 299 299 300 299 298 302 300 300 300 305 304 307 313 317 315 312 311 310
306 307 308 308 309 309 308 308 307 306 304 302 302 303 304 305 305 298 295 300 299 300 297 295 303 303 308 308 308 308 308 306 301 299 297 299 303 302 298 294 300 305 304 305 304 306 308 311 316 316 315 312 312 311
306 306 308 309 309 308 308 308 307 306 304 302 302 303 304 305 296 295 294 300 302 299 297 293 292 299 304 303 303 303 307 304 302 298 298 297 299 301 298 296 303 307 304 304 308 308 305 309 312 315 314 314 312 311
305 306 307 308 308 308 308 307 307 305 304 302 302 302 305 304 299 290 297 304 299 300 299 291 292 298 303 298 297 302 303 302 301 298 298 297 297 297 294 299 302 305 305 304 306 308 306 307 306 308 312 311 310 308
305 306 307 307 307 308 307 307 306 305 303 301 302 304 296 291 289 293 309 305 304 300 293 292 290 293 301 297 297 301 301 297 300 296 295 297 293 293 298 300 302 304 302 302 302 302 304 305 306 311 310 310 309 307
305 306 307 307 307 307 306 306 305 304 302 302 297 293 288 293 303 307 300 294 294 293 298 296 296 294 299 295 295 297 297 294 291 295 298 293 293 297 299 301 302 303 304 302 298 298 300 301 308 309 309 311 310 309
305 306 307 308 307 307 306 305 305 303 301 293 290 291 296 305 297 295 290 288 288 287 290 296 297 295 300 296 294 296 294 293 289 292 295 290 290 296 300 301 303 303 302 300 299 300 301 302 303 309 310 311 311 309
305 306 307 307 307 306 306 305 304 295 292 294 295 297 295 293 290 289 287 290 288 286 291 290 292 296 296 300 296 296 294 294 290 295 293 289 294 297 300 302 302 302 303 301 301 301 302 303 305 307 311 311 311 309
306 307 307 306 306 306 305 304 303 302 300 299 295 293 289 288 279 283 283 285 286 291 291 290 289 292 293 299 296 296 292 291 295 291 291 293 296 303 303 303 303 303 303 302 304 305 305 305 305 304 305 311 311 309
306 306 306 306 305 305 305 305 304 300 294 293 293 280 283 281 285 285 286 288 291 291 292 291 289 293 294 295 295 293 295 294 289 286 288 295 302 304 305 305 305 305 305 304 304 306 305 305 305 305 309 310 309 307
306 306 305 305 305 304 305 305 304 297 294 294 293 282 284 289 290 291 291 289 291 292 293 292 291 294 293 294 293 291 289 289 290 288 293 301 302 303 304 304 305 306 306 306 305 305 307 310 309 309 310 308 308 308
305 303 301 304 304 304 304 303 299 298 297 295 292 288 288 287 287 288 290 290 292 291 293 293 289 290 291 291 290 289 288 287 289 298 301 301 301 302 303 306 307 307 307 306 306 308 309 311 310 308 307 306 307 307
302 297 303 304 304 304 302 296 295 293 294 294 288 290 289 289 288 289 290 290 292 292 289 290 289 289 292 289 288 293 290 295 299 300 301 301 301 301 302 305 306 306 305 304 304 305 305 310 310 308 305 306 305 306
295 300 303 303 301 300 298 297 295 294 291 291 287 288 289 292 292 292 294 294 294 292 291 291 292 287 287 288 289 293 295 299 301 300 299 300 300 300 303 301 302 303 303 303 302 302 303 303 305 307 306 306 306 306
297 300 303 302 300 296 293 295 295 288 290 289 289 289 291 291 292 294 294 294 296 296 295 292 289 287 289 292 293 293 294 297 297 296 295 296 297 299 299 300 300 299 299 298 297 297 298 300 301 303 307 306 306 305
302 302 302 302 301 293 290 291 296 289 286 289 291 289 291 291 292 292 293 294 294 295 293 290 288 290 293 294 295 295 295 296 295 294 294 294 296 297 296 297 296 296 296 296 296 294 296 296 298 302 303 303 304 305
299 299 301 300 297 295 292 292 289 288 288 289 292 290 290 292 289 290 291 292 291 289 288 290 290 292 293 294 294 294 294 295 294 294 293 293 295 294 294 295 295 294 294 294 294 295 295 295 296 297 300 301 303 304
297 301 297 298 294 294 293 293 291 290 288 289 292 290 289 287 287 289 291 290 290 291 291 292 293 294 294 294 295 295 295 294 293 294 293 293 293 293 293 293 294 293 293 293 294 294 295 296 297 298 300 301 300 302
299 298 295 294 289 287 287 293 289 289 286 288 290 288 287 287 289 292 288 289 291 294 295 294 294 294 294 294 294 294 295 295 293 293 294 293 293 293 293 293 294 293 293 293 295 295 295 293 296 297 297 298 299 300
300 293 288 287 286 285 291 287 288 289 288 286 286 286 286 287 290 288 286 288 291 293 293 293 294 292 292 292 291 290 291 292 292 292 292 292 291 291 292 293 293 294 294 294 294 294 295 295 294 295 296 296 297 296
287 287 286 285 290 287 286 286 287 286 285 286 286 285 286 288 285 285 285 288 288 289 290 292 291 292 290 288 288 289 290 290 289 289 290 290 289 290 290 291 292 293 294 292 292 293 294 294 294 294 295 295 295 295
283 286 283 288 287 286 288 285 285 286 287 286 286 288 288 286 285 284 288 289 288 288 288 289 290 288 287 288 287 287 288 289 289 288 288 289 289 292 292 291 292 292 294 294 293 294 294 295 295 294 294 294 291 293
280 287 290 292 292 292 290 292 291 288 287 286 286 287 286 284 285 286 291 290 287 288 289 289 288 287 287 286 287 288 289 289 289 290 291 291 292 295 295 293 292 294 295 295 295 295 295 295 295 295 295 295 295 295
290 290 287 291 290 292 289 289 289 288 289 289 287 286 287 286 284 290 293 290 291 290 289 289 289 288 288 288 289 288 288 289 292 292 293 294 295 296 296 296 296 291 294 296 296 296 295 295 295 295 295 295 296 297
289 293 292 289 290 288 287 287 286 288 290 284 284 284 284 286 290 291 290 293 293 290 287 286 287 289 289 289 289 291 293 292 287 290 290 289 288 291 296 297 297 297 297 297 291 290 295 295 295 296 296 296 297 298
290 293 289 289 287 284 287 289 287 289 289 289 288 287 286 291 294 290 290 288 287 287 288 288 289 289 289 290 292 294 295 293 294 292 289 289 288 294 295 296 296 297 297 297 296 297 292 293 294 294 293 293 293 294
291 290 289 288 288 290 292 292 292 291 290 288 288 285 283 287 290 292 290 290 290 293 292 290 289 288 288 289 288 287 286 289 290 292 292 291 294 295 295 296 297 297 297 296 295 295 295 294 295 296 296 296 296 294
288 288 289 288 288 292 294 292 291 289 287 288 285 291 291 287 285 286 291 291 289 289 287 288 287 286 288 289 289 289 287 290 291 291 293 295 296 296 296 296 295 294 294 294 294 295 295 296 296 295 295 297 296 296
289 290 291 290 289 289 292 292 291 288 288 288 287 288 288 284 283 287 292 293 291 290 290 289 289 289 290 291 290 291 288 291 290 286 286 284 285 288 289 291 292 293 292 292 293 295 297 298 297 295 295 295 296 296